Wind_Speed
12 12 11 11 11 10 10 11 11 12 12 12 13 14 14 14 14 14 14 14 14 15 15 16 17 18 18 19 21 22 23 23 23 20 12 20 23 16 12 12 7 4 8 10 8 6 4 3 5 5 3 1 1 2 3 4 3 2 3 3 4 6 6 3 3 5 3 7 7 8 4 9 7 5 6 7 13 14 13 12 13 14 12 15 22 29 30 31
12 12 12 12 11 11 11 11 11 12 12 13 13 13 14 14 14 14 14 14 14 15 15 16 17 18 19 19 21 21 24 24 21 19 24 27 21 17 16 15 11 8 10 10 10 8 4 2 5 4 3 0 2 2 2 3 3 4 3 3 6 5 4 2 3 7 5 7 9 9 4 5 8 8 6 5 9 14 16 11 15 18 14 17 23 28 28 28
12 12 12 12 12 12 12 12 11 11 12 13 13 13 14 14 14 14 15 15 15 15 15 16 17 17 19 20 20 21 22 19 11 16 27 24 21 21 18 17 14 12 14 11 9 10 9 3 2 2 2 1 3 2 2 3 2 4 4 4 7 2 3 4 4 8 8 9 9 9 6 3 4 4 5 8 9 12 16 13 15 17 16 17 17 22 26 24
13 12 12 12 13 13 12 12 12 12 12 13 14 14 14 14 14 15 15 15 15 15 15 16 17 17 19 19 19 19 16 9 4 11 18 16 20 21 20 19 15 15 16 11 8 10 10 5 4 0 2 3 3 2 3 3 2 3 5 6 5 1 4 6 5 9 11 10 7 6 6 6 2 2 8 14 10 5 10 14 19 21 21 21 17 18 22 20
13 13 13 13 13 13 13 13 13 12 12 13 14 14 15 15 15 15 15 15 15 14 15 15 17 18 19 20 18 16 8 2 3 5 8 10 16 20 22 21 17 17 16 12 10 7 8 5 1 0 2 4 3 1 4 6 3 3 5 5 5 4 6 7 5 8 11 7 3 3 6 6 4 5 9 12 10 5 7 11 19 23 22 23 20 18 18 17
13 13 13 13 13 13 13 13 14 13 13 13 14 15 15 15 15 16 15 15 14 14 15 15 17 18 20 21 14 6 1 1 5 5 4 2 9 19 23 22 20 19 16 13 9 4 4 3 3 2 2 3 4 5 5 5 4 4 6 4 7 8 7 7 4 7 8 2 3 4 3 3 4 6 3 4 7 7 9 11 16 18 19 22 20 17 15 14
14 13 13 13 13 13 13 13 14 14 14 14 14 15 15 16 16 15 15 15 14 14 14 15 16 17 20 18 7 2 1 7 11 4 6 7 3 13 22 24 22 18 16 13 8 5 3 4 5 4 2 3 5 7 7 4 5 6 7 5 7 9 8 9 6 7 10 5 4 3 4 4 4 5 2 7 10 12 13 13 16 16 18 20 17 15 14 13
14 14 13 13 13 13 13 13 14 14 15 15 15 15 16 16 16 16 15 14 14 13 14 14 15 16 18 15 3 1 0 14 19 7 3 5 4 6 16 22 22 19 16 15 11 7 4 4 6 4 3 5 5 6 7 4 4 7 9 8 6 6 8 9 7 8 9 6 7 3 6 4 5 7 6 9 13 16 17 15 15 16 16 16 15 16 14 12
15 15 14 14 14 13 13 13 13 14 15 15 15 15 16 16 16 16 14 13 13 12 14 14 14 15 15 9 1 1 7 22 26 16 7 4 2 5 12 18 21 21 17 16 14 7 4 5 7 5 3 5 5 5 4 3 4 6 9 9 7 7 8 7 6 8 7 3 5 6 4 5 7 9 7 7 14 16 17 16 15 15 14 12 12 13 13 13
17 15 15 15 14 14 14 13 14 14 14 15 16 16 16 16 16 15 14 13 12 12 13 12 13 13 12 7 1 3 8 11 13 14 11 8 8 10 13 15 19 22 17 14 14 10 7 7 5 3 2 4 5 5 2 4 4 5 6 7 8 9 8 4 5 7 6 1 2 5 1 6 5 5 5 5 12 16 16 16 14 14 12 11 11 11 12 13
17 16 16 15 15 14 14 14 14 14 14 15 15 16 17 16 16 15 14 13 12 12 12 11 12 11 9 6 1 6 4 5 8 3 1 6 10 14 16 15 16 21 18 11 13 17 15 12 4 2 2 3 4 5 4 5 4 6 6 6 8 8 7 3 4 7 4 1 3 2 5 2 4 5 9 10 12 15 17 16 14 13 12 12 12 10 10 10
19 18 16 16 15 15 15 15 15 15 15 15 16 16 17 17 17 16 15 14 13 12 10 11 10 9 8 5 6 16 9 10 7 4 4 4 8 13 15 16 15 17 18 11 12 20 21 16 4 1 4 2 4 4 4 5 4 6 6 4 7 6 6 6 5 5 4 4 5 4 6 5 3 9 15 14 12 13 16 16 13 13 13 13 12 10 8 9
20 19 18 17 16 15 15 15 15 15 16 16 17 17 17 18 17 16 16 14 14 12 11 10 9 8 5 2 15 28 19 10 13 21 15 10 10 13 15 17 17 15 17 15 15 19 20 17 7 3 5 2 3 4 5 7 6 7 4 3 3 5 5 7 4 6 6 5 5 6 2 7 1 10 16 15 15 15 15 14 12 12 12 12 11 10 8 8
20 20 19 17 16 15 15 15 15 15 16 16 17 18 18 18 18 17 16 15 14 12 11 10 8 6 2 7 21 28 25 23 27 29 21 17 16 15 16 18 20 17 17 17 17 17 18 17 9 4 4 3 4 5 7 7 3 5 4 0 0 1 5 7 2 8 6 5 6 7 3 7 3 9 16 15 17 17 15 13 13 12 11 11 10 11 9 7
20 21 21 19 17 16 15 15 15 15 16 17 17 19 19 19 18 17 15 15 14 12 11 10 7 4 2 11 20 19 16 14 21 26 23 21 18 13 13 16 22 22 19 19 16 14 16 14 7 3 4 4 3 4 5 4 3 2 1 4 1 2 4 8 3 7 6 4 7 8 4 6 4 10 15 14 16 17 16 14 13 13 12 11 10 10 9 7
20 20 20 20 18 16 16 15 15 15 16 16 18 20 19 20 19 17 16 14 14 11 9 8 7 6 2 6 10 11 7 6 16 24 23 22 19 15 13 13 18 21 18 18 16 13 11 7 4 4 4 4 2 2 4 4 4 3 2 3 1 3 3 4 5 4 8 4 4 6 5 4 3 10 14 14 16 16 16 14 14 14 13 12 10 9 9 8
19 19 19 20 18 16 16 15 15 14 15 16 18 20 20 20 18 17 15 13 12 9 8 6 4 6 5 8 8 7 7 12 18 20 20 21 20 20 15 9 9 14 12 11 11 8 4 2 3 4 4 3 3 4 2 4 4 4 0 2 2 3 3 2 5 4 6 6 4 5 6 4 3 12 14 13 15 16 16 15 15 13 12 12 11 10 10 9
18 18 18 19 19 17 16 15 14 14 15 16 18 20 22 20 16 14 14 12 7 4 7 7 3 3 6 10 7 5 5 10 15 14 16 16 15 18 15 6 5 7 6 4 5 4 2 1 3 3 3 4 4 5 4 5 5 3 2 1 3 2 2 4 4 4 5 7 7 4 6 7 5 13 15 14 15 16 17 16 14 13 13 12 11 11 10 10
19 19 18 19 19 18 16 14 14 14 15 15 17 20 19 13 9 8 9 7 2 2 2 5 6 2 4 7 8 6 8 9 12 10 13 13 11 13 12 8 5 5 5 2 4 5 4 1 3 4 5 6 6 6 7 7 6 6 4 3 4 4 4 4 4 6 5 6 8 6 7 8 7 13 15 13 13 14 16 14 13 12 12 12 11 10 10 10
19 19 18 18 19 17 16 16 15 14 14 13 15 15 9 3 2 3 3 4 7 7 3 4 10 6 7 4 1 7 13 9 7 7 13 15 10 6 5 5 2 4 5 5 4 4 5 4 5 6 6 7 8 8 8 8 6 5 3 2 4 4 5 5 4 8 6 6 8 8 9 8 7 12 14 11 8 10 14 14 13 12 11 11 11 11 10 8
20 19 18 17 17 17 16 15 14 13 12 11 10 7 2 2 2 1 1 5 11 14 11 7 12 14 14 11 8 12 12 8 7 6 14 17 10 5 3 4 4 4 5 7 5 2 5 6 7 7 8 8 8 9 8 7 6 4 2 2 4 4 5 6 5 8 6 6 8 7 8 9 6 11 14 12 7 9 14 15 15 13 12 11 12 12 9 7
20 19 19 16 16 18 16 13 14 13 11 10 10 6 6 9 7 2 3 4 8 14 15 12 13 16 20 21 18 11 5 6 10 9 12 14 10 6 4 4 5 4 4 6 5 3 5 7 7 7 7 7 7 8 9 8 7 5 2 2 4 3 3 6 6 7 6 6 7 7 8 10 6 9 13 16 12 10 14 17 17 16 14 13 12 12 10 9
20 19 19 17 16 17 15 13 13 12 13 13 12 11 12 15 10 6 5 3 6 10 11 11 12 13 17 18 14 9 6 6 7 9 11 14 10 8 6 5 6 5 5 8 7 6 5 5 8 8 6 7 6 6 8 7 6 4 3 3 5 4 1 4 6 6 8 7 4 7 8 8 2 6 9 15 16 12 11 11 12 12 14 14 13 12 11 12
19 18 18 17 16 15 14 11 12 15 17 17 18 21 20 18 10 6 4 2 6 6 9 14 11 10 16 13 6 8 7 6 6 8 11 14 10 8 8 6 7 5 7 10 9 7 3 3 8 8 7 9 6 5 7 6 5 5 5 6 8 6 4 5 5 6 6 5 2 7 4 6 1 7 8 8 11 11 8 8 9 7 10 13 12 11 11 12
18 17 17 17 16 15 14 9 13 18 16 15 19 20 16 16 14 8 3 1 4 4 7 13 8 10 19 12 7 7 3 5 9 9 10 14 13 9 7 6 6 7 9 11 9 6 5 4 9 9 8 8 7 7 6 7 5 5 6 11 12 7 5 6 5 5 3 5 3 6 5 6 3 7 10 6 7 9 8 9 10 9 10 11 10 10 9 9
17 16 16 16 16 14 11 5 11 12 9 13 15 12 8 10 10 9 2 2 4 2 4 8 8 10 14 10 8 6 1 5 10 12 14 17 17 10 7 5 4 8 9 8 5 3 5 6 9 11 9 8 8 8 7 8 5 4 6 11 11 7 6 7 6 3 2 5 5 6 7 3 2 4 11 11 11 10 9 9 10 10 9 9 8 9 9 9
16 16 15 15 14 12 11 3 6 5 5 8 8 8 11 13 8 10 2 3 4 3 6 6 6 8 10 12 12 8 2 4 6 10 14 20 18 10 8 6 5 7 6 6 4 3 8 9 10 11 10 9 8 8 9 9 6 6 6 7 7 7 8 8 7 5 5 3 2 4 6 3 0 4 9 14 15 12 10 10 9 9 9 8 8 9 11 10
15 15 15 14 14 15 16 8 5 5 10 10 10 12 17 12 9 10 1 1 2 3 6 4 6 6 7 12 13 8 5 4 5 5 10 21 18 8 9 8 6 8 6 7 6 4 9 11 12 13 10 8 8 9 11 9 7 9 7 6 6 8 8 7 7 6 4 0 3 6 4 4 1 3 5 11 14 13 12 12 12 10 10 9 9 10 10 9
15 14 15 14 12 16 22 16 12 14 17 16 16 16 18 6 11 6 2 2 2 2 5 3 6 5 5 10 12 9 6 1 3 2 6 16 15 6 6 7 7 9 8 7 6 4 7 10 11 12 10 8 9 10 11 10 8 8 6 5 3 4 4 4 6 5 1 1 4 8 5 4 2 3 5 8 10 13 11 10 11 10 10 10 9 10 9 8
14 14 14 12 10 14 17 15 19 18 16 16 16 17 16 4 6 2 1 3 3 1 3 3 5 5 9 11 9 11 8 2 2 2 4 6 8 5 4 5 5 6 7 6 6 6 6 8 8 8 8 9 10 10 10 11 11 6 3 5 3 1 1 1 1 2 3 2 7 9 7 5 3 4 8 7 7 13 13 9 9 9 10 10 9 10 9 8
14 14 13 10 10 14 10 8 16 13 12 15 16 16 10 2 2 2 4 3 2 1 2 3 4 6 12 12 8 10 8 4 3 3 5 3 4 4 4 5 4 3 4 5 6 8 8 7 7 6 8 10 9 8 8 10 11 7 3 4 2 3 3 2 3 2 3 5 7 7 7 6 4 5 7 2 2 13 17 15 15 14 11 10 9 9 8 8
13 13 12 11 11 14 12 12 12 8 13 15 14 8 1 4 0 4 4 4 1 1 1 4 5 7 11 10 9 10 7 4 4 3 6 5 4 5 5 6 5 4 4 5 5 6 8 7 6 5 8 11 9 7 6 7 9 8 4 4 4 1 1 1 2 1 3 6 7 4 6 4 2 3 3 4 4 11 11 13 18 17 14 12 10 9 8 8
11 11 11 11 12 16 21 21 14 10 16 16 8 1 4 2 3 4 3 4 3 3 3 3 5 9 12 8 8 10 7 4 4 3 7 7 5 6 7 5 6 7 4 4 5 5 6 5 5 7 7 10 11 7 6 6 7 8 6 5 5 3 2 3 3 1 2 5 6 3 6 4 2 1 6 6 8 11 5 6 11 13 13 12 10 9 9 9
8 9 9 9 13 19 23 21 14 12 16 14 2 5 2 4 3 1 1 3 4 5 6 2 4 10 11 8 8 9 7 5 4 4 7 8 5 6 8 7 7 7 4 3 4 6 7 6 6 8 5 8 12 10 8 7 5 6 5 6 5 5 5 3 4 3 3 4 4 2 2 2 1 1 6 2 8 12 9 8 9 11 11 10 9 10 9 9
6 6 6 7 14 20 21 17 12 11 12 6 3 3 5 5 2 2 1 4 5 5 9 9 4 10 8 5 7 9 7 4 5 4 4 8 7 6 8 8 7 6 4 5 3 4 8 7 6 7 6 8 11 9 8 8 5 4 4 6 4 5 5 2 4 6 4 2 2 3 1 1 1 2 5 6 10 11 11 10 10 11 10 10 9 9 9 9
3 3 4 7 14 18 18 14 10 10 8 0 4 2 4 3 3 2 4 7 7 7 11 10 2 8 5 4 6 10 8 3 3 4 3 6 7 7 8 7 7 8 5 5 3 3 6 6 5 5 7 9 11 10 8 8 6 3 3 5 5 5 7 3 2 3 4 4 1 1 2 0 1 3 6 9 10 10 11 10 8 9 10 10 9 8 8 8
9 6 2 4 12 15 12 10 8 8 4 2 2 3 3 4 4 4 7 9 10 10 8 4 1 3 5 5 5 10 10 4 3 4 3 4 5 7 9 6 7 10 8 5 2 2 5 4 6 7 8 9 9 11 9 7 6 5 5 6 3 4 3 3 2 1 3 4 2 1 4 4 2 1 4 9 10 8 9 9 8 8 8 8 7 8 9 9
9 4 0 5 12 12 8 7 6 4 1 3 1 2 3 5 4 6 9 10 11 10 5 1 2 1 4 6 5 9 11 6 4 4 3 3 3 6 9 7 7 10 10 7 2 2 3 2 5 6 9 7 4 8 7 5 2 4 6 5 4 4 1 1 3 2 2 3 1 0 4 3 1 2 6 12 11 9 9 9 9 8 7 7 7 9 9 9
6 2 2 4 10 9 7 8 4 1 2 2 3 3 3 6 6 8 10 10 10 7 4 2 1 2 1 4 4 8 11 7 5 4 4 4 3 7 10 7 7 10 11 8 5 3 1 1 3 5 7 7 4 5 7 5 1 3 3 3 2 4 4 3 3 3 4 3 1 2 3 3 0 2 8 13 12 12 11 9 8 8 6 6 6 7 8 8
4 1 3 2 7 10 9 8 2 1 2 1 3 4 5 6 7 9 11 11 8 4 3 2 1 2 2 1 1 4 9 9 6 3 4 6 4 7 10 8 7 10 12 9 6 2 0 2 2 5 3 6 5 5 7 7 3 3 3 2 1 2 2 2 2 2 4 4 3 4 2 4 1 1 6 10 10 10 11 10 8 7 7 6 6 6 6 7
2 1 3 3 6 10 7 4 1 2 1 1 2 5 6 6 7 10 13 13 9 5 6 6 3 3 3 2 1 2 3 7 8 4 3 7 6 4 8 11 9 9 11 9 7 4 2 3 3 3 1 5 5 4 7 10 7 6 4 4 4 4 3 3 1 2 2 5 5 5 4 4 2 1 5 10 10 10 12 11 9 8 8 7 5 6 6 6
1 2 3 2 7 10 6 3 0 1 1 2 3 5 6 5 8 10 11 12 9 7 7 5 5 5 4 2 1 1 1 4 7 6 3 6 10 7 7 12 12 10 9 8 7 5 3 3 3 3 3 5 5 5 7 10 8 7 4 4 4 4 4 5 3 4 0 3 3 4 3 3 3 2 6 10 10 11 12 12 11 9 9 8 7 7 7 6
2 3 4 3 8 7 5 3 2 3 2 3 4 6 7 6 7 8 9 10 8 6 4 3 4 4 2 1 2 1 2 1 5 8 5 6 11 12 10 12 15 12 8 6 6 4 3 3 3 2 3 3 5 5 4 5 7 6 3 4 5 4 4 5 5 4 3 3 3 3 1 2 2 1 7 9 9 10 10 11 12 10 8 9 9 8 7 7
1 2 2 4 3 1 2 3 2 3 4 5 6 8 7 6 7 9 10 10 8 4 3 3 3 3 0 2 1 3 3 1 2 5 5 5 9 13 12 12 15 12 6 6 6 4 4 3 2 2 0 3 4 2 3 2 3 3 3 4 5 5 6 4 2 3 3 3 5 5 2 1 1 4 9 11 11 11 9 10 12 10 8 9 9 8 7 7
1 1 2 3 4 2 2 1 1 1 3 5 6 6 5 5 7 11 14 12 10 6 3 5 4 1 1 2 1 4 3 1 1 0 2 3 5 10 11 13 16 11 7 9 9 6 5 3 3 4 4 3 3 4 5 4 3 1 2 4 5 6 7 4 2 4 4 2 3 5 4 3 4 7 11 13 13 12 11 11 10 10 10 9 9 8 6 6
0 2 1 2 2 1 2 3 2 2 3 2 3 3 4 5 7 11 13 11 10 8 5 7 3 3 3 3 3 4 3 1 1 2 2 3 2 2 7 13 12 8 11 15 12 5 2 2 3 6 6 6 5 4 3 4 4 2 2 3 4 5 6 5 4 4 5 3 3 2 8 10 8 10 12 12 13 13 12 13 12 10 10 9 9 8 6 6
1 1 2 2 0 1 3 4 3 4 4 2 2 2 4 7 7 7 7 6 8 7 5 3 2 4 1 3 2 4 5 3 3 3 2 3 3 5 2 7 6 4 12 17 11 6 4 3 4 6 7 7 5 2 4 7 6 3 3 2 3 4 5 6 3 4 6 6 1 4 13 15 11 12 13 13 14 15 13 13 13 11 10 9 8 9 8 8
2 1 0 0 1 2 3 4 4 6 7 5 3 3 5 8 8 6 4 4 8 5 1 2 5 5 1 3 1 2 5 4 4 4 4 5 5 6 6 3 4 2 7 10 7 6 5 3 4 5 6 5 6 7 8 9 6 5 7 5 5 4 5 5 5 6 7 6 6 11 16 15 14 14 14 15 15 15 14 13 12 11 11 10 11 11 10 8
2 1 2 2 1 2 3 5 5 6 9 8 5 5 7 8 8 7 5 4 6 5 3 3 4 5 3 5 4 2 4 4 4 4 4 5 4 4 5 4 4 4 5 6 3 3 4 2 4 4 5 5 6 7 9 9 6 5 7 6 5 4 4 4 5 5 3 2 9 17 14 8 9 11 12 12 11 11 11 11 11 12 12 12 12 11 9 8
0 0 1 1 2 3 3 4 4 5 6 6 4 5 7 7 6 6 4 2 2 5 5 4 4 4 5 6 6 2 2 2 3 4 4 4 3 3 3 1 4 5 5 3 1 2 3 3 3 4 5 5 6 5 8 9 8 6 6 8 9 7 6 4 1 3 5 4 10 16 10 4 5 7 9 10 10 12 12 12 12 12 13 13 12 10 9 8
3 4 3 1 2 2 1 3 3 2 0 1 2 5 5 5 5 4 3 3 5 4 4 4 4 3 3 6 6 3 4 3 3 5 4 2 1 2 2 1 2 2 4 3 2 3 3 2 1 5 5 2 6 3 6 8 8 7 6 8 9 7 4 3 3 1 5 10 13 12 8 5 7 10 10 9 12 14 14 13 12 11 11 13 12 10 9 9
7 6 3 2 2 3 2 3 2 1 2 1 2 5 5 4 6 5 2 3 6 6 5 5 4 3 3 5 2 5 7 5 4 5 4 0 1 1 2 4 4 4 3 3 3 2 3 4 2 4 5 1 6 2 5 7 6 4 3 2 3 2 0 1 4 4 5 13 12 7 7 9 12 15 14 12 13 14 13 12 12 11 11 11 11 12 11 9
Wind_Direction
318 318 318 318 317 318 318 318 319 318 320 320 321 323 322 323 322 320 320 318 318 318 319 320 322 324 324 325 327 325 325 321 312 308 270 245 249 245 237 237 239 256 231 226 237 253 265 243 227 198 177 302 204 222 224 194 187 180 180 198 222 231 230 185 198 238 258 292 293 303 323 119 126 119 109 67 80 93 84 77 77 69 83 108 122 130 128 132
313 312 314 315 314 313 314 315 314 316 317 317 320 322 322 323 321 320 320 321 321 318 319 320 321 323 323 326 325 325 327 319 309 291 257 247 253 247 238 234 227 225 217 213 224 223 206 218 224 187 142 211 233 222 222 212 170 173 168 188 223 222 232 214 253 281 295 292 296 304 309 134 155 155 137 107 107 103 93 88 95 93 96 108 123 130 129 134
310 309 310 310 310 310 311 311 310 312 314 316 317 318 321 321 320 319 318 319 320 319 319 319 320 322 324 325 324 328 326 318 308 271 263 256 246 242 231 221 217 213 214 219 231 219 209 239 272 161 146 234 252 235 234 254 217 194 174 208 237 243 294 271 275 285 284 285 292 299 316 74 153 157 125 123 115 106 115 126 118 119 126 126 131 134 135 138
306 306 307 308 306 307 308 308 308 310 310 313 313 316 318 317 319 318 316 316 317 320 318 319 323 322 324 325 325 327 325 314 280 259 268 256 233 230 221 215 209 207 213 227 239 224 226 269 330 307 192 245 254 236 236 244 238 213 186 210 237 296 298 266 269 286 289 291 275 280 340 14 347 127 130 127 110 102 143 150 141 140 140 139 141 141 140 140
300 301 304 304 304 305 306 306 306 307 307 309 311 313 314 315 317 316 317 316 315 319 318 321 322 324 326 325 324 323 326 309 285 283 273 244 220 214 212 208 202 208 214 224 232 229 240 253 312 243 212 241 244 224 243 233 218 257 237 223 230 240 273 267 270 279 280 296 295 313 11 343 321 108 141 140 131 161 165 155 145 141 142 143 144 144 144 142
292 295 298 299 301 302 303 304 304 304 305 306 308 309 311 313 313 314 315 314 316 317 318 322 323 327 327 324 327 312 245 243 305 351 354 267 210 204 200 196 199 210 215 219 224 219 230 191 167 207 203 234 224 209 243 239 187 240 270 251 234 233 247 261 270 266 263 307 333 311 7 341 17 79 142 126 113 128 131 139 135 134 137 138 139 141 144 145
285 288 291 293 296 297 300 302 301 302 302 303 305 306 309 310 312 313 311 311 315 316 319 323 324 329 329 333 341 182 137 276 275 332 26 39 109 192 192 193 198 206 210 211 206 203 201 159 181 197 192 243 227 217 236 242 191 215 254 253 239 233 235 249 254 273 280 306 299 298 19 1 54 76 71 87 100 112 117 128 127 128 133 134 138 140 143 146
279 283 285 288 291 293 296 298 299 300 299 300 301 304 307 308 312 310 308 310 311 315 320 322 328 331 332 339 354 126 263 247 243 239 351 17 73 162 187 194 199 206 209 210 204 195 182 178 207 192 195 237 222 227 228 233 233 218 233 242 240 227 232 243 232 251 268 289 300 343 32 16 93 93 85 102 114 119 123 129 128 130 134 138 143 141 142 143
274 278 281 284 286 289 292 293 295 295 296 297 299 302 304 306 311 310 308 310 311 315 319 323 328 330 334 334 322 340 253 242 241 241 254 274 229 179 187 193 201 207 211 220 213 193 187 198 209 189 205 247 237 248 218 191 248 221 217 230 236 229 232 225 202 226 232 242 306 321 35 92 104 86 73 103 121 125 129 131 132 134 135 138 138 137 138 136
271 273 276 280 281 285 288 289 291 291 292 294 296 298 300 304 307 308 306 306 310 312 317 326 326 331 341 334 202 220 262 248 243 245 247 260 242 202 192 196 203 204 206 221 211 196 210 213 201 173 251 277 258 262 218 183 235 247 239 240 241 242 243 198 179 233 245 263 282 282 306 124 132 90 90 131 132 131 130 130 136 133 129 127 127 130 132 132
264 267 270 274 277 280 284 287 288 289 289 289 293 296 297 301 302 304 304 302 305 308 316 323 327 335 330 328 192 221 252 128 130 139 249 265 241 211 203 205 207 203 201 208 212 209 218 232 239 55 281 278 280 285 266 231 247 268 263 269 267 258 260 222 202 237 236 274 187 232 310 107 120 121 143 156 144 137 132 133 137 129 123 124 124 125 127 130
258 259 264 266 271 276 280 284 285 286 288 288 290 292 293 296 298 300 300 300 301 305 314 316 327 331 311 318 232 228 209 143 135 8 342 290 260 239 229 219 212 208 202 197 219 219 222 238 251 101 249 303 321 294 278 278 299 276 237 237 281 285 266 237 221 219 184 233 189 109 333 318 93 142 152 150 145 139 132 134 134 126 123 123 122 121 119 118
264 255 256 259 264 270 275 281 283 285 287 287 286 288 290 291 295 298 299 298 297 299 306 310 319 313 308 296 238 233 227 227 282 303 289 278 282 265 256 236 220 215 211 208 224 226 227 238 232 211 254 302 294 276 298 312 334 301 251 173 287 334 289 246 201 169 168 219 187 113 304 284 310 152 153 145 145 139 132 136 131 123 122 120 120 117 110 107
278 260 253 254 257 263 271 276 282 286 286 288 286 285 286 288 292 295 296 295 294 297 297 304 308 295 257 260 259 253 257 269 286 291 273 268 280 278 275 250 224 218 218 218 227 230 231 238 233 234 261 232 247 285 308 314 329 304 296 318 79 359 280 277 226 145 167 219 164 124 203 258 283 162 157 149 149 142 137 140 130 123 123 122 122 118 112 108
290 272 256 251 253 258 266 272 278 284 286 289 288 286 286 287 291 291 294 293 291 290 291 295 278 262 275 267 273 279 281 283 279 269 256 260 270 272 273 247 223 219 219 222 228 231 232 235 227 233 263 235 237 291 307 318 324 326 284 305 350 165 262 294 289 148 171 232 145 135 205 256 244 169 160 154 151 141 138 139 131 128 127 126 122 118 117 113
294 285 263 250 248 252 260 267 274 280 287 290 289 289 288 288 289 291 295 290 288 284 282 289 239 205 240 271 289 304 284 237 248 248 243 249 248 239 253 256 229 217 216 221 227 234 233 227 208 203 236 249 224 244 299 324 317 354 148 249 248 178 239 297 301 191 185 213 151 161 200 251 221 171 162 157 154 142 138 139 133 132 131 129 125 123 123 120
295 292 271 251 246 248 253 263 271 278 285 287 290 290 290 292 292 296 297 288 289 276 246 258 217 189 246 276 305 308 243 220 235 241 240 242 239 233 245 274 235 208 211 224 232 241 222 189 210 208 211 219 180 170 254 275 270 315 21 224 233 189 191 220 289 273 194 202 215 193 203 231 184 165 164 160 157 146 141 142 136 137 135 131 131 132 132 131
294 295 282 261 248 245 250 262 269 274 280 285 288 290 292 295 293 293 287 277 287 273 235 252 245 179 254 265 265 266 250 235 239 243 241 238 238 236 232 249 236 191 199 229 241 234 164 186 202 208 223 202 180 159 192 225 211 232 207 194 258 226 207 211 249 263 187 204 227 194 218 236 157 157 164 162 164 152 146 145 139 142 138 136 137 136 140 141
294 294 291 274 251 240 246 257 262 269 278 285 289 296 300 299 295 280 264 254 219 168 214 216 197 174 280 253 223 254 294 267 246 245 240 231 228 234 228 238 246 177 175 189 229 208 163 216 192 197 226 203 194 178 189 211 192 200 195 178 220 226 244 224 231 248 187 195 226 193 218 228 158 159 162 159 169 155 145 140 136 144 139 136 139 138 145 145
293 290 291 282 257 238 238 249 259 269 278 286 299 312 316 301 287 263 225 212 217 232 271 195 197 240 296 280 235 341 336 309 264 235 235 228 206 209 222 224 217 183 186 172 208 209 155 198 219 203 212 199 195 185 192 213 203 208 219 225 238 231 252 237 233 254 199 184 230 206 217 229 164 162 158 146 165 154 141 140 143 148 142 139 137 134 141 142
290 288 289 288 267 239 232 249 261 267 272 282 296 310 314 199 169 56 217 225 229 238 260 238 212 238 262 270 309 345 349 317 293 260 238 228 191 170 207 177 171 211 205 174 189 211 163 204 224 205 205 201 196 187 190 217 228 232 228 268 282 249 254 259 249 256 209 188 232 201 210 239 182 160 158 142 152 162 148 147 152 148 141 138 131 129 133 131
289 289 287 289 272 240 228 244 257 264 268 271 271 253 247 242 226 331 322 262 244 231 239 244 230 244 256 261 277 301 315 281 288 287 241 213 182 173 189 160 172 206 203 181 184 191 198 222 220 203 201 194 197 194 193 218 231 233 221 268 280 252 274 283 268 261 214 196 231 188 197 235 194 155 164 151 156 176 166 160 157 150 144 140 136 134 135 135
287 286 285 288 274 242 224 236 253 265 261 253 245 233 246 249 245 324 322 277 276 235 220 231 233 246 256 260 262 250 248 246 259 275 230 195 180 178 185 178 178 190 198 195 189 181 200 226 208 200 187 181 200 201 195 221 236 223 207 231 257 244 262 277 280 268 217 196 194 167 194 241 154 120 167 161 159 169 167 156 143 142 144 143 142 140 143 146
285 284 284 286 278 246 221 234 253 258 256 250 245 246 256 256 256 322 330 253 274 248 209 211 210 235 246 248 230 199 218 225 224 260 226 192 178 174 186 185 173 193 212 203 194 190 222 218 186 190 189 183 198 209 193 204 238 233 204 218 242 238 215 226 273 295 243 219 124 127 171 268 73 124 164 166 148 144 136 123 110 114 132 134 134 134 138 144
284 284 283 282 282 249 214 226 253 255 257 247 250 261 269 266 259 265 300 302 272 260 211 202 189 238 238 221 200 195 209 238 224 245 229 192 177 170 186 185 173 202 209 200 196 196 239 219 173 184 201 186 193 217 199 178 214 251 221 223 231 230 234 242 277 320 288 252 228 132 151 268 293 137 153 144 118 120 120 127 128 127 133 133 130 130 129 130
282 284 278 279 283 244 199 219 253 251 249 239 260 284 297 291 260 220 193 358 280 241 170 173 170 221 217 176 176 178 78 273 227 231 232 200 183 174 182 183 178 205 198 188 201 194 214 209 177 184 198 193 201 221 209 175 184 244 230 220 222 219 234 250 264 284 224 242 236 163 165 237 308 148 157 146 126 125 129 136 141 139 139 139 134 133 133 132
280 279 274 278 277 224 181 218 253 240 227 243 291 310 308 305 239 191 161 10 279 201 145 159 172 182 174 161 162 147 161 254 206 223 225 192 180 174 186 188 171 196 183 169 208 189 184 196 188 187 192 197 206 218 212 176 170 235 226 192 196 203 218 236 243 239 222 245 287 193 168 128 148 205 170 143 130 134 145 146 148 144 142 145 140 138 140 143
276 275 271 274 270 220 201 232 290 271 239 256 298 300 316 316 190 173 76 70 242 154 132 176 190 161 149 156 156 161 225 227 167 214 202 179 176 169 191 197 170 186 187 181 201 175 177 195 194 189 194 203 205 214 209 175 186 240 221 171 177 187 208 227 225 239 238 196 284 236 173 110 178 211 152 138 136 146 158 157 154 151 152 151 143 140 141 143
272 274 267 269 275 231 215 232 268 268 260 282 302 304 325 335 166 150 34 190 230 160 129 155 183 166 141 142 155 193 236 259 180 188 152 173 181 168 190 191 165 187 205 199 196 178 186 199 195 190 197 206 205 214 208 183 205 238 210 194 188 154 196 224 205 223 307 62 240 225 176 115 166 176 142 146 153 157 162 162 156 153 160 158 146 144 143 137
269 270 263 266 270 224 209 232 251 264 284 305 316 316 324 331 157 126 158 216 254 190 112 145 181 162 148 143 161 201 218 272 253 150 113 173 181 158 171 168 157 191 211 208 204 216 213 200 197 194 198 203 201 210 207 196 212 232 202 221 236 79 5 284 205 136 85 293 251 221 191 138 140 208 174 165 174 162 154 154 157 159 163 157 145 144 141 132
268 264 256 259 240 203 188 231 245 270 318 320 315 314 316 27 72 191 193 258 273 140 78 160 170 145 150 152 164 193 208 252 272 165 149 178 177 167 164 171 187 196 204 214 213 232 238 211 203 200 193 195 195 206 213 207 216 225 202 190 204 320 328 345 335 49 125 248 259 223 193 143 134 210 195 194 195 165 160 161 164 166 161 150 142 139 134 127
266 259 253 253 232 209 208 221 237 295 338 325 308 304 59 91 302 225 237 317 9 122 240 173 150 149 157 161 173 184 192 216 245 196 167 167 179 192 184 179 183 175 199 212 194 217 238 229 216 202 194 191 187 198 217 217 216 216 201 151 145 261 282 194 255 236 174 241 256 192 165 160 168 196 245 296 205 175 174 167 164 160 149 145 142 135 128 125
263 256 253 244 225 219 223 229 246 300 327 320 300 104 84 129 206 217 262 323 16 351 303 183 155 155 157 160 179 186 189 200 216 196 175 172 170 195 213 206 169 158 180 188 165 192 236 261 230 203 198 191 184 183 198 213 211 203 192 156 153 162 162 198 228 223 191 240 262 198 164 209 258 44 331 295 181 158 132 133 149 143 134 137 136 128 124 120
258 250 254 240 220 220 226 238 259 289 312 319 337 108 131 207 222 249 259 316 322 327 330 302 169 156 159 171 178 181 194 215 210 183 173 173 169 193 213 216 180 153 142 155 165 186 208 246 223 200 201 186 186 190 182 178 193 203 171 134 154 164 153 191 201 174 203 230 290 345 150 213 247 13 334 329 136 126 112 113 122 121 121 127 124 121 121 115
251 244 247 219 211 220 229 242 263 285 301 320 100 135 189 200 278 353 57 335 323 334 333 317 197 158 164 177 174 181 197 216 204 199 184 174 180 194 201 210 195 162 140 165 191 189 198 237 232 199 209 187 183 193 175 161 189 216 141 126 178 181 147 151 187 174 173 193 325 3 50 335 49 46 31 75 100 109 122 126 126 130 130 128 125 123 121 118
171 189 204 192 208 221 229 238 259 284 292 118 127 193 211 217 283 335 5 345 334 335 329 320 168 150 164 167 172 188 197 215 191 201 218 170 174 191 197 208 194 180 170 171 204 190 182 246 257 185 208 205 183 180 177 175 184 184 156 174 195 163 131 117 202 193 112 120 267 325 109 109 104 62 52 78 88 96 115 121 124 132 132 128 127 126 124 122
121 125 150 203 216 219 219 226 252 279 298 75 124 190 215 258 279 318 343 338 323 321 327 325 23 136 164 163 173 182 185 208 191 183 219 183 176 191 197 205 186 187 191 168 208 208 158 242 262 181 199 227 191 169 180 189 162 154 202 205 159 121 107 99 153 309 60 122 267 299 147 169 171 116 75 91 93 99 114 118 119 122 127 126 125 127 124 122
106 99 55 231 215 211 204 207 237 276 27 66 227 219 222 249 290 327 326 322 315 320 336 298 310 19 152 165 186 178 173 192 191 173 205 211 208 196 191 200 192 193 197 176 199 275 144 223 270 203 194 219 187 157 183 215 151 150 189 180 135 149 191 102 157 198 148 148 310 86 168 187 181 164 148 134 133 135 127 124 128 128 127 126 127 130 125 119
69 68 336 244 202 197 195 193 212 327 68 114 217 225 255 273 301 317 310 309 312 319 322 271 314 357 159 164 180 176 171 184 189 176 194 198 223 213 193 190 196 198 199 184 190 251 123 123 269 242 201 183 166 167 190 215 53 82 139 159 137 157 165 164 162 159 157 161 130 133 190 240 313 185 174 159 151 146 138 133 130 126 123 124 128 128 120 115
35 55 348 344 170 178 185 184 187 55 125 192 226 240 282 302 305 305 302 304 309 303 283 285 338 326 289 136 112 163 173 182 184 186 197 185 206 226 204 191 190 197 200 197 197 213 139 154 240 283 231 170 191 212 185 177 154 107 139 192 174 112 131 155 158 134 136 145 140 133 210 257 229 175 176 157 141 136 137 132 126 123 119 116 116 114 110 109
356 78 347 7 149 170 166 143 98 78 137 285 285 260 273 292 293 297 300 298 295 272 268 280 268 261 275 273 51 68 174 186 185 184 189 183 188 219 214 201 191 191 197 203 209 195 154 172 207 286 241 180 233 242 164 159 167 155 161 189 168 131 118 128 242 282 116 130 154 153 184 243 243 195 168 153 144 141 137 131 128 128 124 118 111 107 107 107
10 45 325 350 149 166 145 87 205 158 150 242 243 250 260 272 281 292 298 295 290 267 256 264 249 244 255 237 89 46 212 189 189 186 173 187 195 209 215 202 196 194 190 197 213 196 139 137 187 242 230 208 258 262 178 162 155 141 152 178 147 119 125 143 205 257 190 119 125 117 147 231 271 230 167 152 147 144 139 133 130 129 127 123 115 112 112 112
50 4 302 190 157 161 132 92 220 203 227 250 246 252 254 259 274 285 289 287 285 269 252 251 235 227 233 107 82 288 270 203 202 198 186 188 202 212 207 190 194 199 187 185 203 198 160 146 179 239 281 300 316 304 235 170 136 135 175 172 144 145 163 165 183 190 173 168 134 88 96 239 282 199 151 143 138 137 136 133 131 131 129 126 125 125 125 123
38 347 272 201 195 237 152 154 179 201 246 265 263 261 254 254 263 267 271 274 277 291 316 292 241 201 163 83 116 272 295 337 220 201 197 200 207 213 204 187 192 193 182 183 182 187 207 190 131 135 64 357 358 327 272 234 151 161 187 163 158 164 163 178 205 170 190 213 158 132 139 218 213 152 142 139 137 136 137 134 131 130 131 131 129 130 130 127
269 58 341 289 303 324 196 203 61 212 257 270 269 267 256 261 262 253 257 262 260 264 293 287 278 96 48 58 69 276 278 192 247 222 235 248 214 204 196 191 193 187 177 183 172 172 202 186 126 135 142 153 175 202 221 205 186 200 143 140 149 156 163 178 174 167 209 236 118 127 143 146 152 150 147 148 146 143 141 137 133 133 137 138 132 129 128 119
359 100 55 312 317 300 257 305 320 265 276 277 272 270 235 252 268 257 254 254 250 247 242 263 292 52 11 18 23 295 291 296 303 45 9 312 308 214 192 184 186 179 173 174 164 144 150 177 164 143 148 174 188 221 232 154 146 180 170 147 130 134 156 147 119 170 190 138 62 141 147 140 156 161 154 153 149 146 147 146 143 142 142 139 130 124 120 115
17 74 128 144 253 272 274 297 289 264 272 273 286 284 242 259 285 278 259 253 263 258 230 257 40 94 309 344 51 276 293 336 2 48 1 326 4 342 280 152 135 153 176 173 159 121 109 191 193 146 152 174 156 88 49 80 97 90 75 60 45 70 115 135 164 205 168 130 81 193 151 145 165 170 158 157 156 152 155 153 147 144 141 134 123 120 121 122
27 56 54 253 217 205 228 254 245 246 259 262 267 275 272 284 296 292 278 280 292 290 183 360 49 107 238 321 92 281 321 356 10 18 357 4 25 343 331 65 70 68 159 163 156 125 119 181 203 155 145 137 110 93 78 83 91 72 60 45 17 37 106 146 205 209 174 165 182 177 166 160 168 171 163 162 159 153 151 147 141 138 134 129 124 124 126 126
356 26 295 301 241 210 239 253 241 239 250 249 246 263 271 278 283 287 296 298 312 350 65 46 44 77 26 13 63 28 356 8 8 12 11 16 20 345 351 16 346 1 95 133 156 115 111 180 210 149 105 54 62 88 89 91 97 68 45 28 8 23 95 140 191 182 158 176 161 159 162 156 156 161 156 149 142 136 137 136 137 138 134 131 130 130 133 134
322 225 250 275 261 242 242 262 251 232 242 244 248 270 274 278 286 295 310 330 353 9 32 43 39 53 39 39 59 45 348 353 1 7 20 32 16 348 15 10 299 339 48 106 162 50 97 183 207 121 84 16 2 55 81 90 98 86 48 18 12 22 47 60 92 98 71 75 132 140 134 97 110 127 126 130 132 132 138 142 142 142 137 134 135 135 137 138
321 296 265 270 292 275 247 273 255 207 290 317 288 299 303 311 319 312 321 30 60 50 27 20 11 15 55 58 50 348 312 313 321 330 345 35 34 293 320 321 281 352 35 46 11 28 79 127 116 86 88 347 324 19 77 77 73 67 40 15 10 13 28 24 350 23 119 125 126 128 133 144 142 130 125 135 142 141 147 148 143 141 140 139 138 137 140 145
332 316 289 256 286 326 338 312 315 47 46 10 320 315 305 310 344 2 358 1 30 41 22 15 17 18 50 59 24 295 293 289 276 290 304 359 131 136 38 26 36 56 58 46 33 25 82 110 109 97 106 294 302 349 76 62 45 12 339 352 349 328 127 62 354 358 109 132 139 156 175 162 145 139 140 148 153 152 152 150 146 144 144 142 139 141 145 146
Height
817 816 815 815 814 813 812 811 811 810 809 808 807 806 805 804 803 802 802 800 800 799 798 797 795 794 793 791 790 787 785 782 778 778 775 765 764 768 768 768 768 769 770 770 770 771 771 771 771 771 773 774 775 774 772 772 772 778 785 793 796 792 786 778 774 770 767 764 755 746 743 749 756 753 749 750 754 757 762 762 760 761 762 765 769 773 776 779
817 816 815 814 813 812 811 810 810 809 808 807 806 805 804 803 802 801 801 800 799 798 797 796 795 794 792 791 789 787 784 781 779 774 764 760 764 765 765 766 767 768 769 769 769 770 771 771 771 772 774 775 775 772 773 771 770 778 784 790 789 782 775 769 767 764 763 764 758 749 746 748 752 751 747 757 766 760 766 771 766 769 773 772 773 776 779 781
815 815 814 813 812 811 811 809 809 808 807 807 805 804 803 802 802 801 800 799 798 797 796 795 794 793 792 790 788 787 784 781 777 765 756 759 762 761 763 764 765 767 767 768 768 769 770 770 771 773 775 776 774 772 774 771 770 774 779 787 781 771 769 765 763 761 758 759 759 753 745 745 749 746 747 759 768 763 767 772 769 774 777 776 776 776 780 782
815 814 813 812 811 810 810 809 808 807 806 805 804 804 803 801 801 800 799 798 797 796 795 794 793 792 791 789 788 786 784 781 769 755 753 755 756 758 760 761 763 765 766 767 768 768 769 770 771 772 776 778 774 773 775 772 771 772 774 780 773 767 768 763 761 758 754 754 756 753 747 747 746 744 750 756 767 772 768 762 761 767 771 774 776 776 779 782
814 813 812 811 810 809 809 808 807 806 805 804 803 803 801 801 800 799 798 797 796 795 794 794 792 791 790 788 786 785 785 778 761 751 752 752 752 754 757 759 762 763 765 767 767 768 769 770 771 773 776 778 776 775 774 768 768 772 769 770 767 766 767 760 758 757 752 753 753 751 751 750 745 747 752 752 761 769 764 758 756 758 763 767 771 775 779 781
812 811 811 810 809 809 807 807 806 805 804 803 802 801 800 800 798 798 797 796 795 795 794 793 791 791 789 786 785 784 783 771 755 752 752 750 751 751 755 758 761 763 765 766 766 767 768 770 773 775 776 775 776 775 772 765 766 774 770 765 763 763 764 758 755 754 750 752 753 750 749 748 749 753 753 752 757 758 756 756 757 759 762 765 769 775 778 781
811 810 809 808 808 807 806 806 805 804 803 802 801 800 799 798 797 797 796 795 795 793 793 792 791 790 787 786 783 783 784 769 753 754 753 751 751 751 755 757 759 763 763 764 765 766 767 770 772 773 774 775 774 772 769 765 765 773 771 765 761 759 760 757 755 753 748 749 748 746 748 749 754 757 755 756 757 755 757 758 759 762 764 768 772 775 779 781
809 808 808 807 806 806 805 804 803 803 802 801 800 799 798 797 797 796 794 794 793 793 793 791 791 789 787 786 783 784 782 765 751 754 754 753 753 753 756 757 760 762 761 763 763 765 767 769 770 769 774 773 770 768 766 767 768 769 770 764 758 757 756 754 755 754 748 745 743 744 750 754 754 755 758 762 759 756 758 761 762 766 768 772 774 775 779 782
807 807 806 806 805 804 803 803 802 801 800 800 799 798 797 796 795 794 794 793 792 792 791 791 790 789 787 786 785 783 769 753 751 755 755 755 755 755 756 756 758 759 760 761 761 765 766 766 766 766 770 769 766 766 763 769 771 764 762 760 757 755 752 752 754 753 749 745 742 745 752 757 752 754 765 765 761 759 759 763 766 768 773 775 776 777 779 783
805 804 804 804 803 803 802 801 800 799 799 798 797 797 795 795 794 793 793 792 792 791 791 791 789 788 788 785 786 777 756 748 753 754 755 757 756 755 755 755 757 757 759 760 760 763 762 761 761 762 766 765 764 764 763 767 765 757 757 757 755 754 751 751 753 751 750 746 745 747 752 757 751 756 774 770 761 761 762 767 768 770 776 778 779 780 780 783
802 802 802 802 801 801 800 800 799 798 797 796 796 795 794 793 792 792 792 791 791 790 790 790 789 789 787 786 786 769 750 749 751 752 755 757 757 756 755 755 755 756 757 758 759 759 759 758 759 762 766 764 763 762 760 759 758 756 756 757 754 752 752 752 753 752 751 750 747 746 748 753 754 760 771 769 763 763 764 769 771 773 777 779 781 782 783 785
799 799 800 799 799 799 798 798 797 796 795 795 794 793 793 792 791 791 790 790 790 789 790 789 789 788 786 788 781 758 747 749 749 751 754 755 756 755 754 755 753 754 755 756 756 756 757 757 759 765 765 763 766 765 759 754 756 755 754 759 757 753 755 752 752 751 751 752 745 747 756 757 760 765 764 763 764 764 766 771 774 776 778 779 782 784 786 787
796 797 797 797 797 797 796 796 795 795 794 793 792 791 791 790 789 790 789 789 789 788 788 788 788 787 789 784 763 747 748 748 748 750 751 753 754 753 754 754 752 753 753 754 754 754 756 757 760 763 761 763 767 764 757 752 756 757 755 758 759 761 760 750 749 749 750 751 742 751 772 768 761 765 761 760 763 766 770 773 775 778 779 781 783 786 789 790
794 794 794 795 795 794 794 794 793 793 792 791 790 789 788 788 788 787 788 788 787 788 787 787 788 786 789 776 750 747 752 749 749 749 749 751 752 752 752 752 752 752 752 753 752 753 755 756 759 761 760 762 763 759 759 759 758 760 760 760 763 771 766 749 747 750 752 752 742 753 777 770 762 765 761 759 761 765 772 774 776 780 781 783 785 788 791 792
792 792 792 792 792 792 792 792 791 791 790 789 788 787 786 786 786 785 786 786 786 787 785 786 786 786 788 772 750 748 752 750 749 746 746 749 751 752 750 750 751 750 751 752 752 753 754 755 759 762 761 758 760 764 767 766 761 761 768 770 768 772 767 751 746 749 752 751 745 755 774 769 764 766 760 759 761 763 770 774 777 781 783 785 787 789 791 793
790 789 789 789 789 790 790 790 790 789 788 787 786 785 784 784 784 784 784 784 784 784 785 785 783 785 785 766 750 748 748 749 746 743 744 746 749 750 748 749 749 749 751 751 752 753 753 756 758 759 760 760 763 769 773 775 771 767 772 775 771 770 769 759 750 746 747 750 750 756 767 766 763 764 760 760 762 763 769 774 777 781 783 785 788 790 791 793
788 787 786 786 787 787 788 788 788 787 786 786 784 783 782 781 781 782 781 782 783 782 783 782 781 786 775 755 748 746 743 744 742 741 742 743 746 746 747 749 747 748 749 749 751 752 753 755 757 758 759 761 764 768 779 787 783 775 774 775 771 768 768 765 757 748 746 751 754 755 760 761 761 761 761 762 762 764 769 774 777 780 783 785 787 790 791 792
786 785 784 784 784 785 786 786 786 785 785 784 783 781 780 779 779 779 779 780 781 782 783 781 784 782 762 747 747 743 740 741 740 740 740 741 744 744 747 748 746 747 749 751 751 752 755 755 758 762 762 763 764 770 783 787 780 778 776 775 773 768 767 767 761 750 748 753 755 758 761 760 761 761 761 762 762 764 767 771 776 779 781 784 787 789 791 792
784 783 782 782 782 783 784 784 784 784 783 782 781 779 777 776 777 777 777 779 780 779 776 775 775 764 746 741 743 741 740 740 739 739 739 740 742 743 745 747 747 748 752 757 756 752 756 759 761 767 768 766 766 768 774 773 770 772 772 773 773 770 767 764 759 749 748 756 758 760 761 758 762 763 761 763 763 764 767 770 776 779 781 784 787 789 791 792
782 782 781 781 780 781 782 782 782 782 782 781 781 779 776 775 776 776 776 777 774 767 762 763 763 752 741 739 739 740 740 738 738 738 737 738 740 742 744 746 748 750 753 759 758 752 754 764 768 768 767 764 763 763 763 764 765 767 770 772 771 771 768 760 756 749 746 756 758 757 759 758 761 764 762 765 767 768 771 774 776 779 781 784 787 790 791 793
780 780 779 779 778 779 780 780 780 780 781 781 780 780 778 774 774 774 774 771 765 761 760 759 759 752 742 739 739 742 745 742 738 736 737 737 739 743 744 745 751 755 755 755 756 752 755 766 768 763 761 758 758 759 759 761 764 767 772 774 773 774 770 760 755 749 745 755 757 755 759 758 759 762 761 764 771 774 773 774 776 778 781 784 786 790 793 795
779 778 777 777 777 777 778 779 779 779 780 779 779 779 775 770 770 772 773 770 762 758 758 757 757 752 741 740 742 746 750 748 741 735 735 736 739 744 744 746 754 757 754 753 756 759 762 766 762 757 757 755 756 757 758 761 764 770 773 776 777 772 767 761 753 748 747 755 757 757 759 757 756 761 760 761 769 773 770 768 770 774 780 783 786 790 792 795
776 775 776 775 775 776 776 777 778 777 778 777 777 776 770 767 769 772 772 772 762 753 753 754 754 749 741 739 742 746 749 748 744 736 732 735 737 741 743 747 754 755 754 754 757 765 768 763 756 754 754 755 758 758 758 762 766 771 774 778 778 770 770 769 757 749 747 750 753 756 759 756 756 762 762 759 761 767 770 768 769 772 777 781 783 786 790 793
774 774 774 772 773 773 773 776 776 775 774 774 773 768 765 766 769 772 772 771 763 749 744 745 747 744 736 735 738 743 745 742 740 734 729 733 735 738 742 745 751 755 753 752 755 762 762 753 749 752 753 754 758 759 761 767 770 772 772 774 773 768 769 768 759 752 750 750 749 757 768 764 758 765 769 763 761 767 772 775 777 779 780 782 784 787 789 791
771 772 771 770 771 771 772 774 773 772 772 772 768 762 763 765 768 773 773 771 762 747 739 738 741 735 726 731 737 737 740 738 733 730 727 728 731 736 740 740 747 754 752 750 754 761 758 748 745 752 754 754 757 760 762 767 772 773 768 764 763 764 765 763 759 758 764 766 753 755 779 778 764 767 771 768 771 775 778 780 783 785 785 785 787 789 790 792
770 770 769 769 770 770 772 772 769 770 770 767 762 760 763 763 766 771 772 772 761 742 735 736 735 725 718 728 732 733 743 736 724 724 725 725 726 730 738 739 740 747 748 747 752 755 752 746 744 750 753 755 758 760 758 761 773 776 761 752 757 761 764 762 760 765 773 772 752 749 772 780 774 774 770 769 778 782 782 785 786 786 787 787 788 789 790 792
768 768 767 768 768 769 770 769 768 768 767 762 758 761 762 761 767 769 769 773 756 731 728 732 727 717 714 721 724 732 742 730 719 721 720 721 723 725 736 739 738 742 739 744 755 750 743 746 746 747 752 756 760 760 754 755 769 769 750 746 755 759 761 759 759 765 765 760 754 749 756 770 781 779 768 768 780 786 786 788 788 787 788 788 788 789 789 791
766 766 766 766 766 767 767 767 767 765 762 759 758 761 760 760 766 767 773 770 739 717 721 724 718 712 712 717 721 727 728 719 721 722 714 717 721 723 735 737 736 740 734 742 757 746 737 745 746 746 753 756 756 753 748 751 761 755 742 745 751 752 755 754 756 760 756 758 765 758 752 768 784 779 771 774 782 789 791 788 788 788 788 789 789 790 790 791
764 764 764 764 764 765 765 766 765 761 760 759 759 759 757 760 762 765 776 762 724 709 714 714 714 713 713 718 723 724 720 718 721 718 712 716 718 721 730 732 732 738 734 737 749 742 734 737 738 742 750 751 748 744 742 748 752 743 739 745 747 749 751 750 756 758 756 765 771 761 751 767 788 784 778 784 785 788 790 786 785 786 788 789 789 789 790 792
762 762 762 763 763 763 765 766 763 760 761 760 759 758 756 759 761 770 777 749 715 709 709 710 714 713 715 721 725 725 722 720 716 713 714 717 717 720 724 726 728 735 736 737 742 738 731 729 731 736 740 739 739 739 738 741 741 737 740 746 748 752 750 750 756 756 765 774 766 756 749 758 787 791 778 780 779 777 783 785 786 787 788 789 788 789 790 791
760 760 761 761 761 762 764 764 761 760 763 760 759 758 757 759 766 777 765 728 709 712 711 713 714 711 716 721 724 725 724 722 716 715 719 719 722 725 725 729 733 738 742 742 741 738 733 732 731 728 728 731 735 737 737 735 735 739 743 748 756 762 758 760 764 762 776 780 757 751 750 750 775 787 774 771 770 768 771 776 781 785 787 789 789 789 790 791
758 758 759 759 760 761 762 761 759 760 761 759 759 758 758 767 775 771 749 719 714 716 711 714 713 711 717 718 720 722 723 724 719 716 720 723 727 729 728 731 735 743 751 749 745 743 738 734 730 726 723 725 733 742 742 736 736 742 747 753 766 774 773 776 778 774 779 772 749 747 752 753 771 782 776 772 769 768 767 767 771 778 783 787 788 789 791 792
756 757 758 758 758 759 759 758 759 761 760 758 759 756 760 773 770 754 742 728 720 715 709 709 709 710 716 719 720 720 722 724 720 718 719 721 729 730 728 727 727 737 747 747 747 749 745 736 729 728 725 719 726 740 746 743 740 744 748 756 767 777 784 788 786 781 778 765 750 747 749 762 778 781 777 773 767 767 770 770 773 777 782 786 788 790 791 793
755 756 756 757 757 757 758 759 760 761 761 759 758 759 767 773 757 738 738 732 721 716 712 708 709 711 715 719 718 717 723 724 719 719 719 722 731 733 730 728 725 729 736 743 746 747 751 747 731 727 725 717 720 728 733 736 738 740 740 747 758 764 772 781 780 777 774 762 755 755 759 774 785 781 776 771 765 768 774 777 779 782 785 787 789 791 793 794
754 755 755 755 756 757 757 760 760 760 763 761 759 763 768 766 751 738 735 730 723 720 716 710 708 713 718 718 716 715 719 722 719 719 720 722 729 731 728 727 725 725 731 741 743 738 746 744 724 717 718 713 717 719 718 727 737 738 734 742 752 748 750 765 769 766 764 761 766 777 782 785 785 780 777 773 771 775 779 781 783 786 788 789 792 794 795 796
754 754 755 755 756 757 758 759 759 760 762 760 761 766 764 755 746 741 736 732 728 724 721 713 705 713 723 720 717 716 716 719 720 722 723 721 724 726 724 723 721 722 726 734 737 734 742 739 718 713 716 710 713 715 713 723 733 735 737 741 742 735 737 754 767 766 761 766 783 794 793 788 784 784 782 779 780 782 784 787 788 789 789 791 794 795 796 797
754 755 756 756 756 756 758 759 760 760 760 760 764 765 760 750 744 741 738 735 732 725 724 721 710 713 721 720 719 717 717 721 721 723 724 721 721 720 719 718 716 718 720 724 729 727 732 735 718 712 718 711 707 710 711 713 718 729 738 736 732 734 738 747 763 770 766 774 793 797 791 787 786 789 788 785 787 788 788 790 791 792 793 793 796 796 797 798
755 756 756 756 756 756 757 759 760 761 760 763 767 762 754 749 743 741 740 737 733 727 726 728 718 712 715 718 717 714 717 724 722 721 723 721 719 715 714 716 712 713 714 718 726 723 724 733 722 709 714 711 704 711 719 715 712 719 725 723 730 746 751 752 762 771 772 785 800 798 792 789 785 789 790 785 787 789 790 792 793 795 796 797 799 798 798 798
755 757 757 755 755 756 758 759 760 761 762 766 770 762 753 749 743 742 742 737 733 729 729 728 721 716 714 714 714 711 715 722 720 720 721 720 719 712 709 711 710 711 711 714 724 722 721 734 730 711 707 710 710 717 727 726 719 717 719 721 728 738 746 749 756 763 767 783 799 799 797 792 784 787 786 782 784 786 788 792 794 797 799 800 801 800 800 800
756 758 758 755 755 757 758 760 761 764 765 766 766 761 754 750 746 743 741 738 734 731 729 727 723 720 716 711 711 710 712 716 717 718 718 717 718 714 707 705 707 709 709 712 719 720 722 733 734 719 709 713 718 717 721 727 725 724 727 732 733 732 736 743 750 754 755 770 791 801 803 793 782 782 783 783 785 786 788 793 795 798 800 801 802 802 802 801
757 760 759 755 757 758 759 763 765 766 767 767 764 760 755 751 748 743 738 737 735 728 724 723 723 722 717 712 712 710 710 713 713 714 714 713 716 715 706 701 702 705 709 715 718 718 723 729 732 728 720 720 718 709 708 715 718 722 727 732 735 735 739 749 758 754 746 756 778 792 796 792 783 780 779 781 784 784 787 791 795 799 800 802 804 803 804 804
759 762 761 757 758 759 760 765 766 765 766 766 761 756 753 749 746 743 738 736 733 726 720 719 719 718 715 711 711 711 710 710 709 710 710 709 711 707 699 696 697 699 706 715 716 712 716 724 730 730 724 719 712 703 702 705 709 716 720 724 730 734 740 752 760 752 744 755 770 777 784 787 783 779 777 779 782 783 787 790 795 800 800 802 805 805 806 806
762 764 761 758 759 759 762 767 768 766 764 760 754 751 749 747 745 743 740 736 730 722 717 716 714 712 709 709 711 711 708 707 706 705 704 705 703 697 692 692 695 697 702 711 713 709 713 723 729 730 724 714 707 703 702 701 707 717 720 720 725 730 733 739 745 743 743 755 762 767 782 788 781 777 777 779 783 785 789 791 795 800 802 803 806 807 808 808
765 766 762 760 760 761 763 766 766 767 763 757 753 749 746 743 742 742 740 735 727 721 718 715 710 707 706 708 711 710 707 707 705 700 699 701 696 689 689 690 692 695 700 705 707 708 716 724 728 733 735 729 724 723 719 712 712 717 720 719 720 724 728 733 738 738 743 753 751 756 781 790 780 778 779 780 786 789 791 793 795 800 804 804 805 807 807 808
765 766 765 763 761 762 764 762 762 764 761 757 754 749 746 743 739 737 735 730 724 721 720 715 706 704 705 707 711 708 702 704 704 699 699 698 689 683 686 689 690 692 695 696 697 702 714 722 723 732 743 746 744 740 732 726 721 719 719 719 720 722 726 734 741 741 745 755 754 757 778 788 781 781 783 782 786 790 792 795 796 799 802 803 803 805 807 807
765 766 768 767 764 764 764 760 760 761 758 757 754 746 746 747 737 728 725 722 718 714 715 712 705 706 709 711 715 712 701 700 702 701 703 702 693 685 683 684 687 689 690 692 694 700 711 717 717 723 731 735 736 732 724 720 722 725 722 719 721 723 724 730 739 742 743 753 762 764 771 780 782 782 783 784 786 790 793 795 797 800 802 802 803 805 808 809
765 765 766 767 767 767 766 762 760 760 756 756 753 745 744 744 734 724 719 715 711 708 710 708 704 712 719 718 720 716 705 701 701 703 706 703 696 691 685 682 685 687 687 689 692 699 711 718 717 719 721 722 725 726 722 719 727 735 731 725 727 730 730 732 736 739 741 748 763 770 766 771 779 779 780 783 785 787 791 793 796 799 801 803 804 807 809 810
764 764 762 763 764 764 764 760 757 757 754 754 752 745 742 740 734 727 719 712 708 705 707 708 709 718 724 719 719 719 711 706 706 708 708 703 700 699 691 685 685 686 686 690 692 697 708 718 719 719 722 723 723 723 721 725 735 743 741 738 738 736 735 734 732 736 736 735 749 765 765 765 772 774 776 779 780 784 789 791 794 797 800 803 805 808 810 811
765 766 764 762 761 759 758 754 751 752 752 751 749 743 740 737 732 726 718 714 712 707 707 713 716 719 720 714 714 720 719 715 714 713 711 708 710 710 702 696 693 688 687 693 696 697 706 718 721 718 723 729 728 725 722 725 735 744 748 749 746 741 739 737 735 736 738 736 743 757 764 765 768 771 776 779 781 786 790 792 795 797 800 803 805 808 810 811
766 766 765 763 761 758 756 753 749 748 746 746 746 741 735 732 729 725 719 717 719 715 714 719 719 717 718 716 716 721 722 721 719 717 714 712 713 712 709 708 704 695 690 695 699 697 704 720 723 717 725 736 734 730 726 724 730 741 749 751 748 741 739 742 741 740 744 750 754 759 766 773 774 775 779 782 784 788 792 794 796 797 799 802 805 808 810 811
765 764 763 763 760 754 753 751 746 743 743 745 746 742 735 731 729 726 721 717 720 722 721 722 721 717 716 718 719 719 719 719 719 717 713 712 713 711 709 709 705 700 697 700 703 700 703 719 722 717 728 741 739 734 729 725 726 734 744 753 753 748 746 749 752 748 745 754 764 767 770 773 774 775 782 786 787 789 792 794 796 798 800 802 805 808 809 810
764 762 760 762 760 753 751 751 745 743 745 747 747 744 739 734 729 726 723 719 720 721 721 721 720 718 719 721 720 718 717 717 717 714 711 710 709 708 708 708 704 702 702 704 708 709 708 714 719 720 732 745 744 734 726 725 731 739 748 757 761 758 754 752 755 752 746 751 762 765 762 763 767 772 780 787 789 790 792 793 795 797 800 802 804 806 808 810